マクノート彗星

421P/McNaught (2009)

English version
Home page
Updated on June 27, 2021

---------------------------------------------------------------------

・ プロフィール

符号 421P/2009 U4
発見日 2009年10月23日
発見光度 16.8等
発見者 Robert H. McNaught (Siding Spring Observatory)

・ 軌道要素

Epoch 2009 Sept. 6.0 TT = JDT 2455080.5                                         
T 2009 Sept.  9.11527 TT                                Rudenko                 
q   1.6492111            (2000.0)            P               Q                  
n   0.08592570     Peri.  259.91974     +0.70205215     +0.69725622             
a   5.0861285      Node    55.69386     -0.56525905     +0.66927021             
e   0.6757433      Incl.   10.09325     -0.43313390     +0.25673167             
P  11.5                                                                         
From 100 observations 2009 Oct. 11-2020 May 25, mean residual 0".6.             

・ 星図

・ 光度変化

        m1 = 14.0 + 5 logΔ + 10.0 log r

---------------------------------------------------------------------

軌道要素はM.P.E.C. 2021-K101に掲載されたものです。
星図はステラナビゲータ Ver.8 (アストロアーツ) で作成したものです。
光度グラフはComet for Windowsで作成したものです。

---------------------------------------------------------------------

Copyright(C) Seiichi Yoshida (comet@aerith.net). All rights reserved.